sat.trackr.live / text

‹ back to catalog

COLIBRI-S (RS67S)

NORAD 61746 · 2024-199M

PAYLOAD ACTIVE UNKNOWN

§ Identity

Operator
Country
CIS
Launch date
2024-11-04
Launch site
VOSTO
Launch vehicle
Mass (kg)
RCS (m²)

Purposes: comms

External: N2YO · Heavens-Above · Gunter

§ Orbital elements

Epoch: 2026-09-19T22:07:39.025344Z

Period
92.81 min
Inclination
97.2796°
Eccentricity
0.0005759
Mean motion
15.51507676 rev/d
Perigee alt
408.4 km
Apogee alt
416.2 km
Semi-major
6,790.5 km
B*
3.0532e-4
RAAN
137.8103°
Arg perigee
306.0674°
Mean anomaly
54.0045°
Rev number
15,208

§ Raw data

COLIBRI-S (RS67S)1 61746U 24199M   26262.92197946  .00017979  00000+0  30532-3 0  99922 61746  97.2796 137.8103 0005759 306.0674  54.0045 15.51507676152088

JSON: /api/v1/satellites/61746 · /tle

For live sub-satellite position, see the globe view (requires WebGL).

§ Visibility from observer

Set your observer location to see the next 7 days of passes ≥ 10°. The values pass through the URL so the page stays shareable.

No JS? Fill the form by hand. The geolocation button needs JavaScript.

§ Radio — SatNOGS DB

ModeDescriptionDownlinkUplink
CW Mode U - CW Beacon 436.835 MHz
GFSK Mode U - GFSK9k6 - AX.25 Beacon and Telemetry (Geoscan framing) 436.835 MHz
DVB-S2 Mode X - DVB-S2 10.475 GHz

3 transmitters · refreshed weekly from db.satnogs.org